Time,TemperatureF,DewpointF,PressureIn,WindDirection,WindDirectionDegrees,WindSpeedMPH,WindSpeedGustMPH,Humidity,HourlyPrecipIn,Conditions,Clouds,dailyrainin,SoftwareType,DateUTC
2013-06-13 00:10:00,68.7,64.0,29.76,East,80,4.0,5.0,85,0.00,,,0.00,Wunderground v.1.15,2013-06-12 21:10:00,
2013-06-13 00:20:00,68.9,64.5,29.76,ENE,59,4.0,5.0,86,0.00,,,0.00,Wunderground v.1.15,2013-06-12 21:20:00,
2013-06-13 00:25:00,68.8,64.4,29.76,East,81,5.0,5.0,86,0.00,,,0.00,Wunderground v.1.15,2013-06-12 21:25:00,
2013-06-13 00:35:00,68.8,64.4,29.76,East,89,6.0,6.0,86,0.00,,,0.00,Wunderground v.1.15,2013-06-12 21:35:00,
2013-06-13 00:40:00,68.8,64.4,29.76,ENE,78,6.0,10.0,86,0.00,,,0.00,Wunderground v.1.15,2013-06-12 21:40:00,
2013-06-13 00:50:00,68.9,64.5,29.76,East,79,6.0,10.0,86,0.00,,,0.00,Wunderground v.1.15,2013-06-12 21:50:00,
2013-06-13 01:05:00,68.8,64.1,29.77,NNE,24,5.0,5.0,85,0.00,,,0.00,Wunderground v.1.15,2013-06-12 22:05:00,
2013-06-13 01:20:00,68.8,64.4,29.77,East,89,4.0,7.0,86,0.00,,,0.00,Wunderground v.1.15,2013-06-12 22:20:00,
2013-06-13 01:25:00,68.8,64.4,29.77,East,84,4.0,7.0,86,0.00,,,0.00,Wunderground v.1.15,2013-06-12 22:25:00,
2013-06-13 01:35:00,68.8,64.4,29.77,ENE,76,6.0,6.0,86,0.00,,,0.00,Wunderground v.1.15,2013-06-12 22:35:00,
2013-06-13 01:50:00,68.7,64.3,29.76,ESE,108,4.0,7.0,86,0.00,,,0.00,Wunderground v.1.15,2013-06-12 22:50:00,
2013-06-13 01:55:00,68.7,64.3,29.76,East,84,5.0,9.0,86,0.00,,,0.00,Wunderground v.1.15,2013-06-12 22:55:00,
2013-06-13 02:05:00,68.6,64.2,29.76,East,98,6.0,6.0,86,0.00,,,0.00,Wunderground v.1.15,2013-06-12 23:05:00,
2013-06-13 02:20:00,68.3,63.9,29.76,ENE,75,6.0,7.0,86,0.00,,,0.00,Wunderground v.1.15,2013-06-12 23:20:00,
2013-06-13 02:35:00,68.2,63.5,29.75,ENE,58,6.0,6.0,85,0.00,,,0.00,Wunderground v.1.15,2013-06-12 23:35:00,
2013-06-13 02:46:00,68.2,63.5,29.75,East,85,5.0,5.0,85,0.00,,,0.00,Wunderground v.1.15,2013-06-12 23:46:00,
2013-06-13 02:55:00,68.2,63.5,29.75,ESE,103,8.0,8.0,85,0.00,,,0.00,Wunderground v.1.15,2013-06-12 23:55:00,
2013-06-13 03:05:00,68.2,63.2,29.75,ESE,111,6.0,6.0,84,0.00,,,0.00,Wunderground v.1.15,2013-06-13 00:05:00,
2013-06-13 03:20:00,68.2,63.2,29.75,SE,126,3.0,3.0,84,0.00,,,0.00,Wunderground v.1.15,2013-06-13 00:20:00,
2013-06-13 03:31:00,68.4,63.4,29.75,ESE,115,3.0,4.0,84,0.00,,,0.00,Wunderground v.1.15,2013-06-13 00:31:00,
2013-06-13 03:40:00,68.5,63.1,29.75,ESE,107,5.0,7.0,83,0.00,,,0.00,Wunderground v.1.15,2013-06-13 00:40:00,
2013-06-13 03:50:00,68.6,63.2,29.75,ESE,114,4.0,4.0,83,0.00,,,0.00,Wunderground v.1.15,2013-06-13 00:50:00,
2013-06-13 04:05:00,68.6,62.5,29.74,East,87,6.0,6.0,81,0.00,,,0.00,Wunderground v.1.15,2013-06-13 01:05:00,
2013-06-13 04:20:00,68.9,62.5,29.74,ESE,109,5.0,5.0,80,0.00,,,0.00,Wunderground v.1.15,2013-06-13 01:20:00,
2013-06-13 04:35:00,69.0,62.2,29.75,East,84,5.0,5.0,79,0.00,,,0.00,Wunderground v.1.15,2013-06-13 01:35:00,
2013-06-13 04:50:00,68.9,62.5,29.75,East,94,1.0,2.0,80,0.00,,,0.00,Wunderground v.1.15,2013-06-13 01:50:00,
2013-06-13 05:05:00,68.8,62.4,29.75,ESE,103,3.0,4.0,80,0.00,,,0.00,Wunderground v.1.15,2013-06-13 02:05:00,
2013-06-13 05:10:00,68.7,62.3,29.75,ESE,108,5.0,6.0,80,0.00,,,0.00,Wunderground v.1.15,2013-06-13 02:10:00,
2013-06-13 05:20:00,68.7,62.3,29.75,SE,130,7.0,7.0,80,0.00,,,0.00,Wunderground v.1.15,2013-06-13 02:20:00,
2013-06-13 05:35:00,68.7,62.3,29.76,ENE,67,5.0,6.0,80,0.00,,,0.00,Wunderground v.1.15,2013-06-13 02:35:00,
2013-06-13 05:50:00,68.7,62.3,29.76,ESE,106,5.0,11.0,80,0.00,,,0.00,Wunderground v.1.15,2013-06-13 02:50:00,
2013-06-13 06:05:00,68.8,62.4,29.76,ESE,112,4.0,4.0,80,0.00,,,0.00,Wunderground v.1.15,2013-06-13 03:05:00,
2013-06-13 06:10:00,68.8,62.4,29.76,ENE,67,3.0,11.0,80,0.00,,,0.00,Wunderground v.1.15,2013-06-13 03:10:00,
2013-06-13 06:20:00,68.9,62.5,29.76,ENE,63,6.0,6.0,80,0.00,,,0.00,Wunderground v.1.15,2013-06-13 03:20:00,
2013-06-13 06:35:00,69.0,62.2,29.76,East,90,7.0,7.0,79,0.00,,,0.00,Wunderground v.1.15,2013-06-13 03:35:00,
2013-06-13 06:50:00,69.0,62.2,29.76,East,101,8.0,8.0,79,0.00,,,0.00,Wunderground v.1.15,2013-06-13 03:50:00,
2013-06-13 07:05:00,69.0,62.2,29.76,East,79,7.0,7.0,79,0.00,,,0.00,Wunderground v.1.15,2013-06-13 04:05:00,
2013-06-13 07:20:00,69.1,62.3,29.77,ENE,60,4.0,10.0,79,0.00,,,0.00,Wunderground v.1.15,2013-06-13 04:20:00,
2013-06-13 07:25:00,69.1,62.3,29.77,East,99,5.0,10.0,79,0.00,,,0.00,Wunderground v.1.15,2013-06-13 04:25:00,
2013-06-13 07:35:00,69.2,62.4,29.77,ENE,71,4.0,4.0,79,0.00,,,0.00,Wunderground v.1.15,2013-06-13 04:35:00,
2013-06-13 07:50:00,69.4,62.6,29.77,ESE,111,5.0,5.0,79,0.00,,,0.00,Wunderground v.1.15,2013-06-13 04:50:00,
2013-06-13 08:05:00,69.3,62.5,29.77,East,84,5.0,8.0,79,0.00,,,0.00,Wunderground v.1.15,2013-06-13 05:05:00,
2013-06-13 08:10:00,69.3,62.5,29.77,East,88,5.0,8.0,79,0.00,,,0.00,Wunderground v.1.15,2013-06-13 05:10:00,
2013-06-13 08:20:00,69.3,62.5,29.77,ENE,78,5.0,7.0,79,0.00,,,0.00,Wunderground v.1.15,2013-06-13 05:20:00,
2013-06-13 08:35:00,69.1,62.3,29.77,ESE,117,7.0,7.0,79,0.00,,,0.00,Wunderground v.1.15,2013-06-13 05:35:00,
2013-06-13 08:40:00,69.0,62.2,29.78,East,94,7.0,7.0,79,0.00,,,0.00,Wunderground v.1.15,2013-06-13 05:40:00,
2013-06-13 08:50:00,68.9,62.5,29.78,ENE,75,6.0,6.0,80,0.00,,,0.00,Wunderground v.1.15,2013-06-13 05:50:00,
2013-06-13 08:55:00,69.0,62.6,29.78,ENE,78,6.0,6.0,80,0.00,,,0.00,Wunderground v.1.15,2013-06-13 05:55:00,
2013-06-13 09:05:00,69.5,62.7,29.78,East,97,6.0,7.0,79,0.00,,,0.00,Wunderground v.1.15,2013-06-13 06:05:00,
2013-06-13 09:10:00,69.7,62.5,29.78,ESE,109,7.0,14.0,78,0.00,,,0.00,Wunderground v.1.15,2013-06-13 06:10:00,
2013-06-13 09:20:00,69.6,62.1,29.78,ESE,115,9.0,9.0,77,0.00,,,0.00,Wunderground v.1.15,2013-06-13 06:20:00,
2013-06-13 09:35:00,70.2,62.3,29.78,SSE,152,10.0,10.0,76,0.00,,,0.00,Wunderground v.1.15,2013-06-13 06:35:00,
2013-06-13 09:40:00,70.4,62.8,29.78,East,90,9.0,10.0,77,0.00,,,0.00,Wunderground v.1.15,2013-06-13 06:40:00,
2013-06-13 09:50:00,70.4,62.8,29.79,ENE,75,9.0,9.0,77,0.00,,,0.00,Wunderground v.1.15,2013-06-13 06:50:00,
2013-06-13 10:05:00,70.7,63.5,29.79,SE,132,5.0,5.0,78,0.00,,,0.00,Wunderground v.1.15,2013-06-13 07:05:00,
2013-06-13 10:20:00,71.3,63.7,29.80,ESE,109,4.0,4.0,77,0.00,,,0.00,Wunderground v.1.15,2013-06-13 07:20:00,
2013-06-13 10:35:00,71.9,63.9,29.80,ESE,103,6.0,7.0,76,0.00,,,0.00,Wunderground v.1.15,2013-06-13 07:35:00,
2013-06-13 10:50:00,71.6,63.3,29.80,ESE,116,9.0,11.0,75,0.00,,,0.00,Wunderground v.1.15,2013-06-13 07:50:00,
2013-06-13 11:05:00,72.1,63.7,29.80,East,94,7.0,7.0,75,0.00,,,0.00,Wunderground v.1.15,2013-06-13 08:05:00,
2013-06-13 11:10:00,72.2,63.4,29.80,ESE,103,8.0,10.0,74,0.00,,,0.00,Wunderground v.1.15,2013-06-13 08:10:00,
2013-06-13 11:20:00,72.8,63.6,29.80,East,88,6.0,6.0,73,0.00,,,0.00,Wunderground v.1.15,2013-06-13 08:20:00,
2013-06-13 11:25:00,72.9,63.7,29.79,East,81,7.0,11.0,73,0.00,,,0.00,Wunderground v.1.15,2013-06-13 08:25:00,
2013-06-13 11:35:00,73.9,64.3,29.79,East,82,5.0,5.0,72,0.00,,,0.00,Wunderground v.1.15,2013-06-13 08:35:00,
2013-06-13 11:40:00,74.6,64.6,29.79,East,94,6.0,6.0,71,0.00,,,0.00,Wunderground v.1.15,2013-06-13 08:40:00,
2013-06-13 11:50:00,74.1,64.5,29.79,East,93,9.0,10.0,72,0.00,,,0.00,Wunderground v.1.15,2013-06-13 08:50:00,
2013-06-13 12:05:00,72.9,64.1,29.80,East,94,9.0,9.0,74,0.00,,,0.00,Wunderground v.1.15,2013-06-13 09:05:00,
2013-06-13 12:20:00,71.8,64.2,29.80,ENE,66,8.0,10.0,77,0.00,,,0.00,Wunderground v.1.15,2013-06-13 09:20:00,
2013-06-13 12:25:00,71.7,63.7,29.80,ESE,103,8.0,10.0,76,0.00,,,0.00,Wunderground v.1.15,2013-06-13 09:25:00,
2013-06-13 12:35:00,71.8,63.8,29.80,ESE,105,9.0,9.0,76,0.00,,,0.00,Wunderground v.1.15,2013-06-13 09:35:00,
2013-06-13 12:40:00,72.2,63.8,29.80,ESE,109,8.0,11.0,75,0.00,,,0.00,Wunderground v.1.15,2013-06-13 09:40:00,
2013-06-13 12:50:00,72.8,64.0,29.79,ENE,78,8.0,10.0,74,0.00,,,0.00,Wunderground v.1.15,2013-06-13 09:50:00,
2013-06-13 13:05:00,73.8,64.6,29.79,East,86,8.0,8.0,73,0.00,,,0.00,Wunderground v.1.15,2013-06-13 10:05:00,
2013-06-13 13:10:00,74.8,65.2,29.80,East,79,8.0,11.0,72,0.00,,,0.00,Wunderground v.1.15,2013-06-13 10:10:00,
2013-06-13 13:20:00,74.2,64.2,29.80,East,101,10.0,10.0,71,0.00,,,0.00,Wunderground v.1.15,2013-06-13 10:20:00,
2013-06-13 13:35:00,74.4,64.4,29.79,NE,56,7.0,9.0,71,0.00,,,0.00,Wunderground v.1.15,2013-06-13 10:35:00,
2013-06-13 13:50:00,74.5,64.5,29.79,ENE,75,8.0,11.0,71,0.00,,,0.00,Wunderground v.1.15,2013-06-13 10:50:00,
2013-06-13 13:55:00,74.6,65.0,29.79,East,86,9.0,11.0,72,0.00,,,0.00,Wunderground v.1.15,2013-06-13 10:55:00,
2013-06-13 14:05:00,74.6,65.0,29.79,ESE,105,8.0,9.0,72,0.00,,,0.00,Wunderground v.1.15,2013-06-13 11:05:00,
2013-06-13 14:20:00,73.7,64.5,29.79,East,88,12.0,12.0,73,0.00,,,0.00,Wunderground v.1.15,2013-06-13 11:20:00,
2013-06-13 14:35:00,73.4,65.0,29.79,East,100,10.0,12.0,75,0.00,,,0.00,Wunderground v.1.15,2013-06-13 11:35:00,
2013-06-13 14:50:00,74.3,65.1,29.79,ESE,103,8.0,8.0,73,0.00,,,0.00,Wunderground v.1.15,2013-06-13 11:50:00,
2013-06-13 14:55:00,74.6,65.4,29.79,East,101,8.0,8.0,73,0.00,,,0.00,Wunderground v.1.15,2013-06-13 11:55:00,
2013-06-13 15:05:00,74.9,65.3,29.79,ESE,102,8.0,8.0,72,0.00,,,0.00,Wunderground v.1.15,2013-06-13 12:05:00,
2013-06-13 15:20:00,75.2,65.1,29.79,ENE,74,8.0,8.0,71,0.00,,,0.00,Wunderground v.1.15,2013-06-13 12:20:00,
2013-06-13 15:35:00,74.8,64.4,29.79,East,98,12.0,14.0,70,0.00,,,0.00,Wunderground v.1.15,2013-06-13 12:35:00,
2013-06-13 15:40:00,74.8,64.8,29.79,ESE,103,10.0,14.0,71,0.00,,,0.00,Wunderground v.1.15,2013-06-13 12:40:00,
2013-06-13 15:50:00,76.1,65.2,29.79,ENE,73,8.0,8.0,69,0.00,,,0.00,Wunderground v.1.15,2013-06-13 12:50:00,
2013-06-13 16:05:00,77.1,65.7,29.79,East,95,8.0,8.0,68,0.00,,,0.00,Wunderground v.1.15,2013-06-13 13:05:00,
2013-06-13 16:10:00,77.3,65.5,29.79,East,94,8.0,8.0,67,0.00,,,0.00,Wunderground v.1.15,2013-06-13 13:10:00,
2013-06-13 16:20:00,77.3,65.1,29.79,ESE,117,7.0,7.0,66,0.00,,,0.00,Wunderground v.1.15,2013-06-13 13:20:00,
2013-06-13 16:35:00,76.2,64.9,29.79,ESE,113,8.0,8.0,68,0.00,,,0.00,Wunderground v.1.15,2013-06-13 13:35:00,
2013-06-13 16:50:00,76.0,64.2,29.79,ESE,105,8.0,8.0,67,0.00,,,0.00,Wunderground v.1.15,2013-06-13 13:50:00,
2013-06-13 17:05:00,76.8,64.6,29.79,East,96,6.0,9.0,66,0.00,,,0.00,Wunderground v.1.15,2013-06-13 14:05:00,
2013-06-13 17:20:00,77.5,65.2,29.79,ESE,114,7.0,11.0,66,0.00,,,0.00,Wunderground v.1.15,2013-06-13 14:20:00,
2013-06-13 17:25:00,77.8,65.1,29.79,East,93,7.0,11.0,65,0.00,,,0.00,Wunderground v.1.15,2013-06-13 14:25:00,
2013-06-13 17:35:00,77.4,64.7,29.79,ESE,115,7.0,12.0,65,0.00,,,0.00,Wunderground v.1.15,2013-06-13 14:35:00,
2013-06-13 17:40:00,76.9,63.8,29.79,SE,130,8.0,12.0,64,0.00,,,0.00,Wunderground v.1.15,2013-06-13 14:40:00,
2013-06-13 17:50:00,76.9,64.7,29.79,ESE,114,7.0,7.0,66,0.00,,,0.00,Wunderground v.1.15,2013-06-13 14:50:00,
2013-06-13 17:55:00,76.8,64.6,29.79,East,82,9.0,11.0,66,0.00,,,0.00,Wunderground v.1.15,2013-06-13 14:55:00,
2013-06-13 18:05:00,76.4,64.6,29.79,SE,143,8.0,13.0,67,0.00,,,0.00,Wunderground v.1.15,2013-06-13 15:05:00,
2013-06-13 18:20:00,75.8,64.5,29.79,East,100,8.0,9.0,68,0.00,,,0.00,Wunderground v.1.15,2013-06-13 15:20:00,
2013-06-13 18:35:00,76.4,64.6,29.79,ESE,113,2.0,3.0,67,0.00,,,0.00,Wunderground v.1.15,2013-06-13 15:35:00,
2013-06-13 18:50:00,76.1,64.3,29.79,SE,124,4.0,6.0,67,0.00,,,0.00,Wunderground v.1.15,2013-06-13 15:50:00,
2013-06-13 19:05:00,76.1,64.3,29.79,East,80,2.0,2.0,67,0.00,,,0.00,Wunderground v.1.15,2013-06-13 16:05:00,
2013-06-13 19:20:00,76.0,64.2,29.79,East,88,4.0,6.0,67,0.00,,,0.00,Wunderground v.1.15,2013-06-13 16:20:00,
2013-06-13 19:35:00,75.9,64.2,29.79,East,79,8.0,10.0,67,0.00,,,0.00,Wunderground v.1.15,2013-06-13 16:35:00,
2013-06-13 19:40:00,75.7,63.5,29.80,East,85,8.0,10.0,66,0.00,,,0.00,Wunderground v.1.15,2013-06-13 16:40:00,
2013-06-13 19:50:00,75.6,63.9,29.80,ENE,69,7.0,12.0,67,0.00,,,0.00,Wunderground v.1.15,2013-06-13 16:50:00,
2013-06-13 19:55:00,75.5,63.8,29.80,East,88,8.0,13.0,67,0.00,,,0.00,Wunderground v.1.15,2013-06-13 16:55:00,
2013-06-13 20:05:00,75.3,64.0,29.80,ESE,115,7.0,7.0,68,0.00,,,0.00,Wunderground v.1.15,2013-06-13 17:05:00,
2013-06-13 20:20:00,75.2,63.9,29.80,East,88,5.0,5.0,68,0.00,,,0.00,Wunderground v.1.15,2013-06-13 17:20:00,
2013-06-13 20:35:00,75.1,63.8,29.80,East,98,5.0,6.0,68,0.00,,,0.00,Wunderground v.1.15,2013-06-13 17:35:00,
2013-06-13 20:50:00,75.1,64.2,29.80,East,93,3.0,3.0,69,0.00,,,0.00,Wunderground v.1.15,2013-06-13 17:50:00,
2013-06-13 21:05:00,75.1,64.2,29.80,ENE,72,3.0,3.0,69,0.00,,,0.00,Wunderground v.1.15,2013-06-13 18:05:00,
2013-06-13 21:10:00,75.0,63.7,29.81,East,79,2.0,3.0,68,0.00,,,0.00,Wunderground v.1.15,2013-06-13 18:10:00,
2013-06-13 21:20:00,75.0,64.1,29.81,ENE,72,2.0,2.0,69,0.00,,,0.00,Wunderground v.1.15,2013-06-13 18:20:00,
2013-06-13 21:25:00,75.0,64.1,29.81,ESE,105,2.0,2.0,69,0.00,,,0.00,Wunderground v.1.15,2013-06-13 18:25:00,
2013-06-13 21:35:00,75.0,63.7,29.81,ESE,107,3.0,4.0,68,0.00,,,0.00,Wunderground v.1.15,2013-06-13 18:35:00,
2013-06-13 21:50:00,74.6,64.2,29.82,East,87,9.0,11.0,70,0.00,,,0.00,Wunderground v.1.15,2013-06-13 18:50:00,
2013-06-13 21:55:00,73.9,63.9,29.82,ESE,113,9.0,11.0,71,0.00,,,0.00,Wunderground v.1.15,2013-06-13 18:55:00,
2013-06-13 22:05:00,72.6,63.8,29.84,East,87,9.0,10.0,74,0.00,,,0.00,Wunderground v.1.15,2013-06-13 19:05:00,
2013-06-13 22:20:00,70.2,64.1,29.84,ESE,110,7.0,7.0,81,0.00,,,0.00,Wunderground v.1.15,2013-06-13 19:20:00,
2013-06-13 22:35:00,69.7,64.3,29.84,ESE,104,3.0,3.0,83,0.00,,,0.00,Wunderground v.1.15,2013-06-13 19:35:00,
2013-06-13 22:50:00,69.6,64.9,29.84,NNE,24,6.0,6.0,85,0.00,,,0.00,Wunderground v.1.15,2013-06-13 19:50:00,
2013-06-13 23:05:00,69.2,64.8,29.84,ENE,66,1.0,4.0,86,0.00,,,0.00,Wunderground v.1.15,2013-06-13 20:05:00,
2013-06-13 23:20:00,69.0,65.3,29.84,ESE,106,4.0,4.0,88,0.00,,,0.00,Wunderground v.1.15,2013-06-13 20:20:00,
2013-06-13 23:35:00,68.8,65.1,29.84,ENE,73,1.0,1.0,88,0.00,,,0.00,Wunderground v.1.15,2013-06-13 20:35:00,
2013-06-13 23:50:00,69.0,65.3,29.84,ENE,67,1.0,3.0,88,0.00,,,0.00,Wunderground v.1.15,2013-06-13 20:50:00,